Date,Time,Wetness (Wet Dry or Ice),Wind Speed (m/s),Temperature (C),Humidity (%),Pressure (mb),Radiation (W/m^2)
2020-12-09,00:25:00,WET,6.50,3.35,100.0,777.00,28.9
2020-12-09,00:30:00,WET,8.27,3.53,100.0,777.00,30.8
2020-12-09,00:35:00,WET,7.30,3.70,100.0,777.00,33.7
2020-12-09,00:40:00,WET,7.40,3.57,100.0,777.00,34.7
2020-12-09,00:45:00,WET,6.20,3.30,100.0,777.00,36.0
2020-12-09,00:50:00,WET,6.40,2.83,100.0,777.00,37.5
2020-12-09,00:55:00,WET,5.85,2.75,100.0,777.00,36.6
2020-12-09,01:00:00,WET,5.67,2.67,100.0,777.00,36.7
2020-12-09,01:05:00,WET,7.80,2.70,100.0,777.50,36.8
2020-12-09,01:10:00,WET,4.83,2.57,100.0,777.00,61.0
2020-12-09,01:15:00,WET,5.85,3.05,100.0,777.00,60.9
2020-12-09,01:20:00,WET,6.60,3.03,100.0,777.00,59.5
2020-12-09,01:25:00,WET,5.50,2.70,100.0,777.00,106.1
2020-12-09,01:30:00,WET,6.20,3.13,100.0,777.00,110.6
2020-12-09,01:35:00,WET,8.20,3.60,100.0,777.00,116.7
2020-12-09,01:40:00,WET,6.83,3.67,100.0,777.00,114.9
2020-12-09,01:45:00,WET,7.60,3.70,100.0,777.00,110.7
2020-12-09,01:50:00,WET,6.80,3.53,100.0,777.00,100.1
2020-12-09,01:55:00,WET,6.80,3.30,100.0,777.00,112.9
2020-12-09,02:00:00,WET,6.07,3.00,100.0,777.00,104.8
2020-12-09,02:05:00,WET,8.40,3.30,100.0,777.00,102.5
2020-12-09,02:10:00,WET,7.00,3.83,100.0,777.00,97.6
2020-12-09,02:15:00,WET,6.80,3.85,100.0,777.00,103.2
2020-12-09,02:20:00,WET,7.10,3.93,100.0,777.00,93.5
2020-12-09,02:25:00,WET,5.65,3.90,100.0,777.00,83.2
2020-12-09,02:30:00,WET,5.97,3.63,100.0,777.00,98.7
2020-12-09,02:35:00,WET,5.40,3.60,100.0,777.00,95.0
2020-12-09,02:40:00,WET,5.27,3.67,100.0,777.33,83.3
2020-12-09,02:45:00,WET,6.20,3.70,100.0,777.00,76.7
2020-12-09,02:50:00,WET,5.03,3.07,100.0,777.00,74.7
2020-12-09,02:55:00,WET,6.00,3.20,100.0,777.00,68.5
2020-12-09,03:00:00,WET,6.80,2.93,100.0,777.00,77.6
2020-12-09,03:05:00,WET,5.15,2.45,100.0,777.00,77.5
2020-12-09,03:10:00,WET,5.43,2.40,100.0,777.00,82.4
2020-12-09,03:15:00,WET,5.65,2.40,100.0,777.00,85.2
2020-12-09,03:20:00,WET,5.93,2.40,100.0,777.00,87.3
2020-12-09,03:25:00,WET,7.55,2.30,100.0,777.00,88.7
2020-12-09,03:30:00,WET,5.57,2.07,100.0,777.00,88.4
2020-12-09,03:35:00,WET,5.65,1.70,100.0,777.00,81.0
2020-12-09,03:40:00,WET,5.70,1.37,100.0,777.00,78.5
2020-12-09,03:45:00,WET,6.45,1.50,100.0,777.00,77.8
2020-12-09,03:50:00,WET,6.40,1.67,100.0,777.00,76.4
2020-12-09,03:55:00,WET,5.45,1.70,100.0,777.00,74.3
2020-12-09,04:00:00,WET,5.73,1.43,100.0,777.00,79.1
2020-12-09,04:05:00,WET,5.90,1.45,100.0,777.00,85.3
2020-12-09,04:10:00,WET,5.53,1.67,100.0,777.00,92.7
2020-12-09,04:15:00,WET,6.75,1.70,100.0,777.00,116.6
2020-12-09,04:20:00,WET,6.43,1.47,100.0,777.00,180.9
2020-12-09,04:25:00,WET,8.25,1.75,100.0,777.00,262.1
2020-12-09,04:30:00,WET,7.63,1.50,100.0,777.00,213.3
2020-12-09,04:35:00,WET,7.30,1.10,100.0,777.00,171.8
2020-12-09,04:40:00,WET,7.47,0.90,100.0,777.00,143.1
2020-12-09,04:45:00,DRY,6.20,0.45,100.0,777.00,120.3
2020-12-09,04:50:00,DRY,7.67,0.07,100.0,777.00,100.4
2020-12-09,04:55:00,DRY,6.15,0.05,100.0,777.00,76.0
2020-12-09,05:00:00,DRY,6.83,-0.13,100.0,777.00,71.3
2020-12-09,05:05:00,DRY,5.30,0.00,100.0,777.00,71.3
2020-12-09,05:10:00,DRY,6.47,0.17,99.3,777.00,63.7
2020-12-09,05:15:00,DRY,6.55,0.45,99.5,777.00,78.4
2020-12-09,05:20:00,WET,5.43,0.60,100.0,777.00,75.0
2020-12-09,05:25:00,WET,6.95,0.65,100.0,777.00,55.5
2020-12-09,05:30:00,DRY,6.50,0.27,95.7,776.67,48.2
2020-12-09,05:35:00,DRY,6.65,0.20,86.5,777.00,35.1
2020-12-09,05:40:00,DRY,7.13,0.13,85.3,776.67,13.9
2020-12-09,05:45:00,DRY,6.45,0.50,77.5,777.00,2.0
2020-12-09,05:50:00,DRY,7.73,0.70,73.7,777.00,2.0
2020-12-09,05:55:00,DRY,7.35,0.70,70.5,777.00,2.0
2020-12-09,06:00:00,DRY,7.50,0.97,65.0,777.00,1.8
2020-12-09,06:05:00,DRY,7.75,1.10,65.5,777.00,2.3
2020-12-09,06:10:00,DRY,7.70,1.17,60.0,777.00,2.2
2020-12-09,06:15:00,DRY,7.65,1.05,60.5,777.00,2.0
2020-12-09,06:20:00,DRY,8.43,1.10,56.3,777.00,2.4
2020-12-09,06:25:00,DRY,8.35,1.55,42.0,777.00,28.6
2020-12-09,06:30:00,DRY,8.40,1.50,44.7,777.00,23.0
2020-12-09,06:35:00,DRY,7.80,1.65,33.5,777.00,24.2
2020-12-09,06:40:00,DRY,7.07,1.77,36.3,777.00,34.7
2020-12-09,06:45:00,DRY,7.75,2.55,28.0,777.00,25.5
2020-12-09,06:50:00,DRY,8.40,2.97,24.0,777.00,25.0
2020-12-09,06:55:00,DRY,7.50,3.00,23.5,777.00,23.4
2020-12-09,07:00:00,DRY,9.23,2.97,22.0,777.00,22.6
2020-12-09,07:05:00,DRY,6.75,3.10,21.0,777.00,25.0
2020-12-09,07:10:00,DRY,8.50,3.17,22.3,777.00,24.4
2020-12-09,07:15:00,DRY,7.20,3.05,25.0,777.00,21.9
2020-12-09,07:20:00,DRY,7.67,2.97,29.0,777.00,21.6
2020-12-09,07:25:00,DRY,6.35,2.85,32.5,777.00,19.6
2020-12-09,07:30:00,DRY,7.80,2.63,37.7,777.00,20.0
2020-12-09,07:35:00,DRY,9.95,2.70,48.5,777.00,20.1
2020-12-09,07:40:00,DRY,7.93,2.50,49.0,777.00,22.3
2020-12-09,07:45:00,DRY,8.80,2.75,39.0,777.00,22.0
2020-12-09,07:50:00,DRY,7.07,2.83,38.7,777.00,19.4
2020-12-09,07:55:00,DRY,6.15,3.20,30.5,777.00,19.6
2020-12-09,08:00:00,DRY,8.23,3.30,32.7,777.00,22.4
2020-12-09,08:05:00,DRY,7.75,3.15,41.0,777.00,28.2
2020-12-09,08:10:00,DRY,9.43,2.97,42.7,777.00,36.1
2020-12-09,08:15:00,DRY,8.20,2.70,47.0,777.00,43.5
2020-12-09,08:20:00,DRY,9.23,2.73,49.3,777.00,53.4
2020-12-09,08:25:00,DRY,5.65,2.30,70.0,778.00,62.5
2020-12-09,08:30:00,DRY,6.90,1.77,73.7,777.00,72.8
2020-12-09,08:35:00,DRY,8.35,2.15,83.0,778.00,81.4
2020-12-09,08:40:00,WET,6.57,1.50,97.0,778.00,97.7
2020-12-09,08:45:00,DRY,7.75,2.15,68.0,778.00,113.6
2020-12-09,08:50:00,DRY,7.23,2.03,83.0,777.67,132.8
2020-12-09,08:55:00,DRY,7.45,2.55,71.0,778.00,150.6
2020-12-09,09:00:00,DRY,7.97,2.23,81.0,778.00,171.0
2020-12-09,09:05:00,DRY,8.75,2.00,89.5,778.00,161.6
2020-12-09,09:10:00,WET,6.40,1.90,93.7,778.00,156.7
2020-12-09,09:15:00,DRY,7.35,1.85,90.5,778.00,195.8
2020-12-09,09:20:00,WET,8.17,2.13,92.3,778.00,173.4
2020-12-09,09:25:00,WET,9.25,2.05,97.5,778.00,170.9
2020-12-09,09:30:00,WET,7.40,2.40,99.3,778.00,177.2
2020-12-09,09:35:00,WET,7.25,2.55,100.0,778.00,171.7
2020-12-09,09:40:00,WET,7.77,2.83,100.0,778.00,222.3
2020-12-09,09:45:00,WET,8.80,3.10,100.0,778.00,226.1
2020-12-09,09:50:00,WET,8.20,3.13,100.0,778.00,243.7
2020-12-09,09:55:00,WET,8.45,3.35,100.0,778.00,236.6
2020-12-09,10:00:00,WET,7.87,3.50,100.0,778.00,246.2
2020-12-09,10:05:00,WET,6.95,3.55,100.0,778.00,233.6
2020-12-09,10:10:00,WET,6.57,3.57,100.0,778.00,276.2
2020-12-09,10:15:00,WET,6.50,3.45,100.0,778.00,293.6
2020-12-09,10:20:00,WET,6.20,3.23,100.0,778.00,284.4
2020-12-09,10:25:00,WET,7.80,3.15,100.0,778.00,300.4
2020-12-09,10:30:00,WET,7.13,3.00,100.0,778.00,313.7
2020-12-09,10:35:00,WET,6.55,3.05,100.0,778.00,292.4
2020-12-09,10:40:00,WET,7.87,3.30,100.0,778.00,298.0
2020-12-09,10:45:00,WET,6.60,3.50,100.0,778.00,306.1
2020-12-09,10:50:00,WET,6.33,3.37,100.0,778.00,322.4
2020-12-09,10:55:00,WET,6.70,3.10,100.0,778.00,401.9
2020-12-09,11:00:00,WET,5.67,2.97,100.0,778.00,444.7
2020-12-09,11:05:00,WET,5.80,3.25,100.0,778.00,386.2
2020-12-09,11:10:00,WET,5.50,3.27,100.0,778.00,378.1
2020-12-09,11:15:00,WET,4.95,3.00,100.0,778.00,373.5
2020-12-09,11:20:00,WET,6.03,3.03,100.0,778.00,353.5
2020-12-09,11:25:00,WET,7.20,3.40,100.0,778.00,374.4
2020-12-09,11:30:00,WET,5.20,3.57,100.0,778.00,380.7
2020-12-09,11:35:00,WET,6.20,3.40,100.0,778.00,352.4
2020-12-09,11:40:00,WET,6.30,3.77,100.0,778.00,352.4
2020-12-09,11:45:00,WET,6.45,3.85,100.0,778.00,355.6
2020-12-09,11:50:00,WET,5.27,3.50,100.0,778.00,488.3
2020-12-09,11:55:00,WET,5.80,3.20,100.0,778.00,486.0
2020-12-09,12:00:00,WET,4.80,3.23,100.0,778.00,472.6
2020-12-09,12:05:00,WET,4.25,3.30,100.0,778.00,527.3
2020-12-09,12:10:00,WET,5.90,3.10,100.0,778.00,524.3
2020-12-09,12:15:00,WET,4.40,3.00,100.0,778.00,577.0
2020-12-09,12:20:00,WET,6.30,2.90,100.0,778.00,546.5
2020-12-09,12:25:00,WET,5.25,2.75,100.0,778.00,541.7
2020-12-09,12:30:00,WET,5.83,3.40,100.0,778.00,476.9
2020-12-09,12:35:00,WET,6.60,3.25,100.0,778.00,547.5
2020-12-09,12:40:00,WET,6.07,2.93,100.0,777.33,507.6
2020-12-09,12:45:00,WET,6.80,3.05,100.0,777.00,505.5
2020-12-09,12:50:00,WET,6.87,3.27,100.0,777.00,455.1
2020-12-09,12:55:00,WET,5.05,2.90,100.0,777.00,528.5
2020-12-09,13:00:00,WET,6.57,2.73,100.0,777.00,482.0
2020-12-09,13:05:00,WET,5.65,2.80,100.0,777.00,457.4
2020-12-09,13:10:00,WET,5.97,2.87,100.0,777.00,513.9
2020-12-09,13:15:00,WET,6.20,2.90,100.0,777.00,413.5
2020-12-09,13:20:00,WET,6.03,3.00,100.0,777.00,412.8
2020-12-09,13:25:00,WET,8.65,3.05,100.0,777.00,498.1
2020-12-09,13:30:00,WET,4.60,3.30,100.0,777.00,354.7
2020-12-09,13:35:00,WET,9.70,3.80,100.0,776.00,386.1
2020-12-09,13:40:00,WET,6.90,3.57,100.0,777.00,439.7
2020-12-09,13:45:00,WET,8.65,2.70,100.0,777.00,522.2
2020-12-09,13:50:00,WET,6.80,3.13,100.0,777.00,441.9
2020-12-09,13:55:00,WET,7.30,3.50,100.0,777.00,355.8
2020-12-09,14:00:00,WET,6.87,3.53,100.0,776.33,344.4
2020-12-09,14:05:00,WET,5.95,3.60,100.0,777.00,393.1
2020-12-09,14:10:00,WET,6.40,3.60,100.0,777.00,396.3
2020-12-09,14:15:00,WET,7.30,3.60,100.0,776.00,496.9
2020-12-09,14:20:00,WET,7.53,3.50,100.0,776.67,394.1
2020-12-09,14:25:00,WET,7.65,3.60,100.0,776.50,363.4
2020-12-09,14:30:00,WET,5.27,3.93,100.0,776.00,345.6
2020-12-09,14:35:00,WET,5.90,4.15,100.0,776.00,296.9
2020-12-09,14:40:00,WET,6.00,4.30,100.0,776.00,274.8
2020-12-09,14:45:00,WET,5.10,4.35,100.0,776.00,272.0
2020-12-09,14:50:00,WET,6.60,4.33,100.0,776.00,264.0
2020-12-09,14:55:00,WET,5.30,4.35,100.0,776.00,229.1
2020-12-09,15:00:00,WET,5.57,4.20,100.0,776.00,266.5
2020-12-09,15:05:00,WET,4.60,4.15,100.0,776.00,259.0
2020-12-09,15:10:00,WET,5.47,4.03,100.0,776.00,258.2
2020-12-09,15:15:00,WET,5.85,4.10,100.0,776.00,260.3
2020-12-09,15:20:00,WET,4.70,4.03,100.0,776.33,302.0
2020-12-09,15:25:00,WET,3.65,3.95,100.0,777.00,273.8
2020-12-09,15:30:00,WET,6.00,3.87,100.0,777.00,336.7
2020-12-09,15:35:00,DRY,6.30,3.40,100.0,777.00,328.0
2020-12-09,15:40:00,WET,5.20,3.73,100.0,777.00,277.0
2020-12-09,15:45:00,WET,4.70,3.45,100.0,777.00,290.9
2020-12-09,15:50:00,WET,5.27,3.37,100.0,777.00,275.2
2020-12-09,15:55:00,WET,5.90,3.60,100.0,776.50,313.5
2020-12-09,16:00:00,WET,5.17,3.80,100.0,777.00,301.0
2020-12-09,16:05:00,WET,5.15,3.75,100.0,777.00,301.6
2020-12-09,16:10:00,WET,3.67,3.07,100.0,777.00,370.0
2020-12-09,16:15:00,WET,4.35,3.10,100.0,777.00,301.8
2020-12-09,16:20:00,WET,4.83,3.30,100.0,777.00,228.5
2020-12-09,16:25:00,WET,4.20,3.25,100.0,777.00,217.3
2020-12-09,16:30:00,WET,5.73,3.33,100.0,777.00,170.9
2020-12-09,16:35:00,WET,4.30,3.00,100.0,777.00,158.6
2020-12-09,16:40:00,WET,6.20,2.97,100.0,777.00,168.7
2020-12-09,16:45:00,WET,6.10,2.95,100.0,777.00,140.4
2020-12-09,16:50:00,WET,5.30,3.33,100.0,777.00,139.3
2020-12-09,16:55:00,WET,5.95,3.60,100.0,777.00,112.3
2020-12-09,17:00:00,WET,6.07,3.60,100.0,777.00,152.2
2020-12-09,17:05:00,WET,6.35,3.80,100.0,777.00,83.9
2020-12-09,17:10:00,WET,5.17,3.73,100.0,777.00,74.2
2020-12-09,17:15:00,WET,6.95,3.60,100.0,777.00,69.0
2020-12-09,17:20:00,WET,5.57,3.53,100.0,777.00,73.4
2020-12-09,17:25:00,WET,5.40,3.60,100.0,777.00,69.9
2020-12-09,17:30:00,WET,6.97,3.53,100.0,777.00,68.8
2020-12-09,17:35:00,WET,7.00,3.35,100.0,777.00,66.2
2020-12-09,17:40:00,WET,5.63,3.27,100.0,777.00,64.5
2020-12-09,17:45:00,WET,4.35,3.25,100.0,777.00,60.2
2020-12-09,17:50:00,WET,5.40,3.07,100.0,777.00,61.9
2020-12-09,17:55:00,WET,5.15,2.95,100.0,777.00,58.5
2020-12-09,18:00:00,WET,5.53,3.00,100.0,777.00,46.9
2020-12-09,18:05:00,WET,3.80,2.90,100.0,777.00,40.9
2020-12-09,18:10:00,WET,4.50,2.43,100.0,777.00,33.0
2020-12-09,18:15:00,WET,4.85,2.45,100.0,777.00,32.9
2020-12-09,18:20:00,WET,5.73,2.43,100.0,777.00,32.1
2020-12-09,18:25:00,WET,6.45,2.45,100.0,777.00,28.4
2020-12-09,18:30:00,WET,5.63,2.43,100.0,777.00,31.0
2020-12-09,18:35:00,WET,5.65,2.45,100.0,777.00,32.3
2020-12-09,18:40:00,WET,5.23,2.57,100.0,777.00,33.6
2020-12-09,18:45:00,WET,5.50,2.65,100.0,777.00,34.0
2020-12-09,18:50:00,WET,5.03,2.77,100.0,777.00,41.6
2020-12-09,18:55:00,WET,5.30,2.75,100.0,777.00,42.5
2020-12-09,19:00:00,WET,5.00,2.70,100.0,777.00,37.2
2020-12-09,19:05:00,WET,4.85,2.20,100.0,777.00,36.9
2020-12-09,19:10:00,WET,5.20,1.97,100.0,777.00,35.7
2020-12-09,19:15:00,WET,5.85,1.90,100.0,777.00,32.8
2020-12-09,19:20:00,DRY,4.33,1.57,100.0,777.00,29.1
2020-12-09,19:25:00,DRY,7.30,1.65,100.0,777.00,26.6
2020-12-09,19:30:00,WET,5.17,1.83,100.0,777.00,27.3
2020-12-09,19:35:00,WET,4.05,2.55,100.0,777.00,27.2
2020-12-09,19:40:00,WET,4.90,2.63,100.0,777.67,26.5
2020-12-09,19:45:00,WET,6.20,2.25,100.0,777.50,28.9
2020-12-09,19:50:00,WET,5.53,2.17,100.0,778.00,28.7
2020-12-09,19:55:00,WET,5.50,2.25,100.0,778.00,26.5
2020-12-09,20:00:00,WET,4.87,2.37,100.0,778.00,28.6
2020-12-09,20:05:00,DRY,7.40,2.00,100.0,778.00,27.4
2020-12-09,20:10:00,WET,6.77,2.30,100.0,778.00,27.6
2020-12-09,20:15:00,WET,5.60,2.55,100.0,778.00,28.6
2020-12-09,20:20:00,WET,5.53,2.07,100.0,778.00,25.8
2020-12-09,20:25:00,WET,5.70,2.20,100.0,778.00,28.2
2020-12-09,20:30:00,WET,5.40,2.30,100.0,778.00,26.2
2020-12-09,20:35:00,WET,6.05,2.15,100.0,778.00,26.1
2020-12-09,20:40:00,WET,6.43,1.93,100.0,778.00,27.1
2020-12-09,20:45:00,WET,6.90,2.05,100.0,778.00,26.8
2020-12-09,20:50:00,WET,5.90,1.80,100.0,778.00,25.2
2020-12-09,20:55:00,WET,8.55,2.15,100.0,778.00,26.0
2020-12-09,21:00:00,WET,5.97,2.53,100.0,778.00,26.9
2020-12-09,21:05:00,WET,7.65,2.05,100.0,778.00,26.1
2020-12-09,21:10:00,WET,7.13,1.73,100.0,778.00,21.3
2020-12-09,21:15:00,WET,5.10,2.35,100.0,778.00,26.5
2020-12-09,21:20:00,WET,6.60,1.90,100.0,778.00,24.2
2020-12-09,21:25:00,DRY,6.50,2.00,96.0,778.00,18.8
2020-12-09,21:30:00,DRY,7.10,2.43,70.0,778.00,13.3
2020-12-09,21:35:00,DRY,5.75,2.15,78.5,778.00,14.7
2020-12-09,21:40:00,DRY,7.03,2.00,82.0,778.00,15.1
2020-12-09,21:45:00,DRY,7.45,2.00,76.5,778.00,14.7
2020-12-09,21:50:00,DRY,6.80,1.90,77.7,778.00,14.2
2020-12-09,21:55:00,DRY,6.85,1.95,74.5,778.00,13.0
2020-12-09,22:00:00,DRY,5.93,2.07,81.7,778.00,13.4
2020-12-09,22:05:00,WET,7.70,2.40,98.5,778.00,23.6
2020-12-09,22:10:00,WET,6.77,2.43,100.0,778.00,28.2
2020-12-09,22:15:00,WET,5.85,2.35,100.0,778.00,29.9
2020-12-09,22:20:00,WET,7.10,2.13,100.0,778.00,28.3
2020-12-09,22:25:00,WET,4.80,2.25,100.0,778.00,27.7
2020-12-09,22:30:00,WET,6.17,2.43,100.0,778.00,27.2
2020-12-09,22:35:00,WET,5.65,3.10,100.0,778.00,27.4
2020-12-09,22:40:00,WET,5.77,3.17,100.0,778.00,26.2
2020-12-09,22:45:00,WET,5.50,3.30,100.0,778.00,25.6
2020-12-09,22:50:00,WET,5.70,3.13,100.0,778.00,26.6
2020-12-09,22:55:00,WET,6.75,3.00,100.0,778.00,31.0
2020-12-09,23:00:00,WET,7.93,3.00,100.0,778.00,27.0
2020-12-09,23:05:00,WET,7.65,3.10,100.0,778.00,27.9
2020-12-09,23:10:00,WET,4.70,3.30,100.0,778.00,28.5
2020-12-09,23:15:00,WET,6.25,3.55,100.0,778.00,34.1
2020-12-09,23:20:00,WET,7.27,3.63,100.0,778.00,30.6
2020-12-09,23:25:00,WET,5.10,3.65,100.0,778.00,28.2
2020-12-09,23:30:00,WET,5.47,3.40,100.0,778.00,28.9
2020-12-09,23:35:00,WET,6.35,3.45,100.0,778.00,28.4
2020-12-09,23:40:00,WET,7.13,3.30,100.0,778.00,27.3
2020-12-09,23:45:00,WET,4.25,3.45,100.0,778.00,24.1
2020-12-09,23:50:00,WET,7.07,3.53,100.0,778.00,25.9
2020-12-09,23:55:00,WET,6.10,3.35,100.0,778.00,25.0
2020-12-10,00:00:00,WET,6.13,3.03,100.0,778.00,26.2
2020-12-10,00:05:00,WET,5.70,3.20,100.0,778.00,27.0
2020-12-10,00:10:00,WET,7.53,2.87,100.0,778.00,30.9
2020-12-10,00:15:00,WET,5.10,2.70,100.0,778.00,28.9
2020-12-10,00:20:00,WET,7.83,3.03,100.0,778.00,28.7
2020-12-10,00:25:00,WET,6.45,3.45,100.0,778.00,32.0
2020-12-10,00:30:00,WET,6.03,3.57,100.0,778.00,30.9
2020-12-10,00:35:00,WET,8.75,3.35,100.0,778.00,30.1
2020-12-10,00:40:00,WET,7.73,3.37,100.0,778.00,29.3
2020-12-10,00:45:00,WET,3.10,3.60,100.0,778.00,28.9
2020-12-10,00:50:00,WET,6.27,3.23,100.0,778.00,27.8
2020-12-10,00:55:00,WET,6.15,3.25,100.0,778.00,27.9
2020-12-10,01:00:00,WET,6.80,3.47,100.0,778.00,29.4
2020-12-10,01:05:00,WET,6.00,3.70,100.0,778.00,26.6
2020-12-10,01:10:00,WET,6.47,3.60,100.0,778.00,27.6
2020-12-10,01:15:00,WET,6.45,3.50,100.0,778.00,27.2
2020-12-10,01:20:00,WET,5.43,3.60,100.0,778.00,26.9
2020-12-10,01:25:00,WET,4.00,3.40,100.0,778.00,27.1
2020-12-10,01:30:00,WET,6.60,3.33,100.0,778.00,26.4
2020-12-10,01:35:00,WET,6.65,3.10,100.0,778.00,25.8
2020-12-10,01:40:00,WET,5.90,2.97,100.0,778.00,23.1
2020-12-10,01:45:00,WET,5.30,2.70,100.0,778.00,19.9
2020-12-10,01:50:00,WET,6.07,2.87,100.0,778.00,20.8
2020-12-10,01:55:00,WET,7.85,3.20,100.0,778.00,20.6
2020-12-10,02:00:00,WET,6.03,3.23,100.0,777.33,18.0
2020-12-10,02:05:00,WET,4.25,3.30,100.0,777.00,15.8
2020-12-10,02:10:00,WET,7.10,3.33,100.0,777.33,15.4
2020-12-10,02:15:00,WET,5.25,3.25,100.0,777.00,16.9
2020-12-10,02:20:00,WET,5.90,3.27,100.0,777.00,18.7
2020-12-10,02:25:00,WET,7.70,3.30,100.0,777.00,23.2
2020-12-10,02:30:00,WET,5.57,3.40,100.0,777.00,21.7
2020-12-10,02:35:00,WET,7.15,3.25,100.0,777.00,22.1
2020-12-10,02:40:00,WET,6.33,3.57,100.0,777.00,15.5
2020-12-10,02:45:00,WET,5.20,3.40,100.0,777.00,14.1
2020-12-10,02:50:00,DRY,7.00,4.60,66.7,777.00,8.3
2020-12-10,02:55:00,DRY,5.85,5.40,48.5,777.00,8.8
2020-12-10,03:00:00,DRY,2.20,4.77,50.0,777.00,10.4
2020-12-10,03:05:00,DRY,2.30,4.75,49.5,777.00,9.9
2020-12-10,03:10:00,DRY,3.40,5.23,47.7,777.00,9.2
2020-12-10,03:15:00,DRY,3.25,5.35,43.5,777.00,10.4
2020-12-10,03:20:00,DRY,2.53,5.37,46.0,777.00,9.3
2020-12-10,03:25:00,DRY,3.90,5.40,42.0,777.00,10.8
2020-12-10,03:30:00,DRY,2.13,5.83,38.3,777.00,10.7
2020-12-10,03:35:00,DRY,6.10,5.80,41.5,777.00,11.1
2020-12-10,03:40:00,DRY,4.77,6.77,32.7,777.00,10.6
2020-12-10,03:45:00,DRY,4.50,6.10,36.0,777.00,9.9
2020-12-10,03:50:00,DRY,4.73,6.33,33.3,777.00,10.7
2020-12-10,03:55:00,DRY,2.20,6.10,37.0,777.00,10.1
2020-12-10,04:00:00,DRY,2.80,5.73,42.7,777.00,10.1
2020-12-10,04:05:00,DRY,3.05,5.85,41.0,777.00,10.5
2020-12-10,04:10:00,DRY,6.40,5.47,45.3,777.00,8.8
2020-12-10,04:15:00,DRY,2.65,5.70,43.0,777.00,7.8
2020-12-10,04:20:00,DRY,3.47,5.70,45.3,777.00,7.3
2020-12-10,04:25:00,DRY,2.45,5.65,45.0,777.00,6.2
2020-12-10,04:30:00,DRY,2.17,5.80,42.7,777.00,6.7
2020-12-10,04:35:00,DRY,3.45,5.70,46.0,777.00,6.5
2020-12-10,04:40:00,DRY,3.00,5.63,43.7,777.00,6.5
2020-12-10,04:45:00,DRY,3.40,5.60,42.5,777.00,5.2
2020-12-10,04:50:00,DRY,4.87,5.70,40.3,777.00,4.8
2020-12-10,04:55:00,DRY,2.90,5.60,41.0,777.00,5.0
2020-12-10,05:00:00,DRY,4.20,5.93,39.3,777.00,2.3
2020-12-10,05:05:00,DRY,4.45,6.00,37.5,777.00,0.8
2020-12-10,05:10:00,DRY,2.63,6.10,35.3,777.00,0.9
2020-12-10,05:15:00,DRY,3.90,5.85,37.0,777.00,0.8
2020-12-10,05:20:00,DRY,4.53,5.70,38.7,777.00,1.0
2020-12-10,05:25:00,DRY,2.70,6.20,37.5,777.00,0.7
2020-12-10,05:30:00,DRY,2.73,6.23,38.0,777.00,0.6
2020-12-10,05:35:00,DRY,7.75,6.40,36.0,777.00,0.4
2020-12-10,05:40:00,DRY,2.00,5.97,39.7,777.00,1.2
2020-12-10,05:45:00,DRY,3.05,5.95,40.5,777.00,1.9
2020-12-10,05:50:00,DRY,2.13,5.83,41.7,777.00,1.6
2020-12-10,05:55:00,DRY,2.05,5.90,41.5,777.00,1.4
2020-12-10,06:00:00,DRY,2.53,5.23,49.0,777.00,1.3
2020-12-10,06:05:00,DRY,1.65,5.00,47.5,777.00,0.9
2020-12-10,06:10:00,DRY,2.93,5.07,51.0,777.00,0.9
2020-12-10,06:15:00,DRY,2.10,4.55,51.0,777.00,1.8
2020-12-10,06:20:00,DRY,2.37,4.87,52.7,777.00,1.3
2020-12-10,06:25:00,DRY,4.00,4.85,58.0,777.00,1.1
2020-12-10,06:30:00,DRY,5.20,4.30,65.0,777.00,1.1
2020-12-10,06:35:00,DRY,3.85,4.00,68.5,777.00,1.1
2020-12-10,06:40:00,DRY,5.20,3.50,76.0,777.00,1.7
2020-12-10,06:45:00,DRY,4.75,3.75,75.0,777.00,2.2
2020-12-10,06:50:00,DRY,3.73,4.60,56.3,777.00,1.0
2020-12-10,06:55:00,DRY,4.00,4.65,58.0,777.00,1.1
2020-12-10,07:00:00,DRY,3.37,4.57,57.7,777.33,1.4
2020-12-10,07:05:00,DRY,5.15,5.10,46.0,778.00,1.1
2020-12-10,07:10:00,DRY,4.00,5.33,44.0,777.67,1.5
2020-12-10,07:15:00,DRY,3.70,5.50,42.0,778.00,0.7
2020-12-10,07:20:00,DRY,1.93,5.73,41.0,777.67,1.3
2020-12-10,07:25:00,DRY,3.75,6.05,36.5,778.00,0.9
2020-12-10,07:30:00,DRY,2.67,5.93,39.0,778.00,1.1
2020-12-10,07:35:00,DRY,6.30,5.60,40.5,778.00,1.0
2020-12-10,07:40:00,DRY,5.30,5.50,40.7,778.00,2.4
2020-12-10,07:45:00,DRY,2.30,5.20,42.0,778.00,3.4
2020-12-10,07:50:00,DRY,4.57,5.73,38.0,778.00,5.6
2020-12-10,07:55:00,DRY,3.25,6.00,36.5,778.00,7.8
2020-12-10,08:00:00,DRY,3.97,5.87,39.0,778.00,10.0
2020-12-10,08:05:00,DRY,3.25,5.75,38.5,778.00,13.4
2020-12-10,08:10:00,DRY,1.87,6.23,36.3,778.00,14.6
2020-12-10,08:15:00,DRY,3.70,5.80,46.0,778.00,17.0
2020-12-10,08:20:00,DRY,2.50,5.87,45.0,778.00,19.1
2020-12-10,08:25:00,DRY,3.05,6.15,51.0,778.00,21.1
2020-12-10,08:30:00,DRY,3.73,6.33,43.3,778.00,22.9
2020-12-10,08:35:00,DRY,4.30,6.95,37.5,778.00,67.3
2020-12-10,08:40:00,DRY,3.77,7.03,34.3,778.00,176.1
2020-12-10,08:45:00,DRY,3.20,6.55,37.0,778.50,195.2
2020-12-10,08:50:00,DRY,3.60,6.63,30.7,778.00,214.9
2020-12-10,08:55:00,DRY,5.80,7.00,29.0,778.50,234.9
2020-12-10,09:00:00,DRY,3.57,6.40,33.3,778.67,255.2
2020-12-10,09:05:00,DRY,3.50,7.00,29.5,778.50,274.4
2020-12-10,09:10:00,DRY,4.63,6.90,28.7,778.67,295.1
2020-12-10,09:15:00,DRY,5.00,7.30,27.5,778.50,313.9
2020-12-10,09:20:00,DRY,3.50,7.50,27.0,778.00,334.1
2020-12-10,09:25:00,DRY,5.10,7.70,27.5,778.00,352.8
2020-12-10,09:30:00,DRY,3.00,7.30,33.0,778.00,372.1
2020-12-10,09:35:00,DRY,2.10,6.90,46.5,778.00,390.5
2020-12-10,09:40:00,DRY,5.77,7.07,42.3,778.67,408.9
2020-12-10,09:45:00,DRY,5.80,6.80,49.5,778.50,426.0
2020-12-10,09:50:00,DRY,2.90,7.07,42.7,778.00,443.6
2020-12-10,09:55:00,DRY,2.70,7.35,43.0,778.00,460.8
2020-12-10,10:00:00,DRY,3.00,7.63,43.3,778.00,478.6
2020-12-10,10:05:00,DRY,3.90,7.85,41.0,778.50,494.8
2020-12-10,10:10:00,DRY,3.77,7.90,39.7,778.33,510.9
2020-12-10,10:15:00,DRY,3.95,7.80,40.5,779.00,527.0
2020-12-10,10:20:00,DRY,4.90,8.27,35.7,779.00,542.9
2020-12-10,10:25:00,DRY,5.25,8.65,35.5,779.00,556.5
2020-12-10,10:30:00,DRY,6.93,8.67,34.7,779.00,571.4
2020-12-10,10:35:00,DRY,5.65,8.65,32.5,778.50,585.2
2020-12-10,10:40:00,DRY,5.30,9.13,30.7,778.67,598.4
2020-12-10,10:45:00,DRY,5.40,9.25,29.0,779.00,611.4
2020-12-10,10:50:00,DRY,5.73,9.40,29.3,779.00,624.0
2020-12-10,10:55:00,DRY,8.20,9.65,25.5,779.00,636.8
2020-12-10,11:00:00,DRY,5.93,9.80,21.7,779.00,648.4
2020-12-10,11:05:00,DRY,4.60,9.85,23.0,779.00,660.3
2020-12-10,11:10:00,DRY,4.13,9.97,26.3,779.00,671.5
2020-12-10,11:15:00,DRY,5.00,10.05,22.5,779.00,682.2
2020-12-10,11:20:00,DRY,5.30,10.03,27.7,779.00,691.6
2020-12-10,11:25:00,DRY,3.85,10.00,31.0,779.00,701.2
2020-12-10,11:30:00,DRY,2.53,10.00,28.7,779.00,711.1
2020-12-10,11:35:00,DRY,5.50,9.70,32.5,779.00,719.2
2020-12-10,11:40:00,DRY,3.53,9.07,34.0,779.00,726.9
2020-12-10,11:45:00,DRY,6.75,8.45,37.5,779.00,735.7
2020-12-10,11:50:00,DRY,4.90,8.13,36.3,779.00,741.7
2020-12-10,11:55:00,DRY,4.60,8.25,39.5,779.00,748.1
2020-12-10,12:00:00,DRY,4.13,8.90,34.7,779.00,756.2
2020-12-10,12:05:00,DRY,2.45,8.55,39.0,779.00,762.4
2020-12-10,12:10:00,DRY,4.47,8.23,40.3,779.00,767.3
2020-12-10,12:15:00,DRY,3.80,8.15,42.0,779.00,772.0
2020-12-10,12:20:00,DRY,3.70,8.37,43.0,779.00,776.3
2020-12-10,12:25:00,DRY,3.80,8.70,31.5,779.00,780.9
2020-12-10,12:30:00,DRY,5.70,9.30,26.3,779.00,785.0
2020-12-10,12:35:00,DRY,3.65,9.45,26.0,779.00,787.2
2020-12-10,12:40:00,DRY,4.90,9.70,29.3,778.67,789.9
2020-12-10,12:45:00,DRY,4.20,9.85,32.5,778.00,792.4
2020-12-10,12:50:00,DRY,3.27,9.47,23.0,778.00,793.8
2020-12-10,12:55:00,DRY,3.75,9.40,20.5,778.00,794.1
2020-12-10,13:00:00,DRY,3.67,9.27,27.0,778.00,795.1
2020-12-10,13:05:00,DRY,4.65,9.00,28.0,778.00,794.9
2020-12-10,13:10:00,DRY,2.20,9.43,24.3,778.00,795.0
2020-12-10,13:15:00,DRY,2.40,9.60,24.0,778.00,793.7
2020-12-10,13:20:00,DRY,1.63,9.77,24.0,778.00,793.4
2020-12-10,13:25:00,DRY,2.55,10.00,22.0,778.00,791.5
2020-12-10,13:30:00,DRY,5.30,10.20,20.0,778.00,788.0
2020-12-10,13:35:00,DRY,0.70,10.50,24.0,778.00,784.3
2020-12-10,13:40:00,DRY,1.90,10.27,25.0,778.00,781.1
2020-12-10,13:45:00,DRY,2.60,9.70,26.0,778.00,776.4
2020-12-10,13:50:00,DRY,3.27,9.27,24.0,778.00,771.9
2020-12-10,13:55:00,DRY,2.80,9.20,23.5,778.00,766.9
2020-12-10,14:00:00,DRY,3.30,9.00,26.0,778.00,761.4
2020-12-10,14:05:00,DRY,3.00,9.50,18.0,778.00,754.5
2020-12-10,14:10:00,DRY,2.07,9.90,23.7,778.00,748.4
2020-12-10,14:15:00,DRY,2.80,9.35,21.0,778.00,741.8
2020-12-10,14:20:00,DRY,3.30,8.83,20.7,778.00,732.6
2020-12-10,14:25:00,DRY,4.55,8.55,22.5,778.00,725.1
2020-12-10,14:30:00,DRY,3.67,8.37,22.7,778.00,716.2
2020-12-10,14:35:00,DRY,4.70,8.35,21.0,778.00,707.2
2020-12-10,14:40:00,DRY,3.40,8.13,23.0,778.00,698.2